Marietta, GA

7:54 AM EDT on March 27, 2017 (GMT -0400)
Dobbins Air Force Base

Weather History for KMGE - April, 2014

Change the Weather History Date:

Thursday, April 10, 2014

  Actual Average Record
Temperature  
Mean Temperature 58 °F -  
Max Temperature 75 °F 68 °F 86 °F (2001)
Min Temperature 41 °F 48 °F 35 °F (2007)
Degree Days  
Heating Degree Days 8    
Growing Degree Days 8 (Base 50)    
Moisture  
Dew Point 37 °F    
Average Humidity 51    
Maximum Humidity 91    
Minimum Humidity 23    
Precipitation  
Precipitation 0.00 in - - ()
Sea Level Pressure  
Sea Level Pressure 30.20 in    
Wind  
Wind Speed 3 mph (SSW)    
Max Wind Speed 10 mph    
Max Gust Speed 17 mph    
Visibility 10 miles    
Events      
Averages and records for this station are not official NWS values.
T = Trace of Precipitation, MM = Missing Value Source: NWS Daily Summary

Daily Weather History Graph

Daily Weather History Graph

Search for Another Location

Airport or City:

Trip Planner

Search our weather history database for the weather conditions in past years. The results will help you decide how hot, cold, wet, or windy it might be!

Date:

Astronomy

Apr. 10, 2014 Rise Set
Actual Time 7:13 AM EDT 8:05 PM EDT
Civil Twilight 6:48 AM EDT 8:31 PM EDT
Nautical Twilight 6:18 AM EDT 9:01 PM EDT
Astronomical Twilight 5:47 AM EDT 9:32 PM EDT
Moon 3:59 PM EDT (4/10) 4:23 AM EDT (4/10)
Length of Visible Light 13h 42m
Length of Day
12h 52m
Waxing Gibbous, 79% of the Moon is Illuminated
Apr 10
Waxing Gibbous
Apr 15
Full
Apr 22
Last Quarter
Apr 29
New
May 6
First Quarter

Hourly Weather History & Observations

Time (EDT) Temp. Dew Point Humidity Pressure Visibility Wind Dir Wind Speed Gust Speed Precip Events Conditions
12:58 AM 48.2 °F 38.1 °F 68% 30.17 in 10.0 mi WNW 2.3 mph - N/A   Clear
1:58 AM 45.9 °F 38.7 °F 76% 30.17 in 10.0 mi West 2.3 mph - N/A   Clear
2:58 AM 44.2 °F 38.8 °F 81% 30.17 in 10.0 mi Calm Calm - N/A   Clear
3:58 AM 44.1 °F 38.5 °F 81% 30.18 in 10.0 mi Calm Calm - N/A   Clear
4:58 AM 43.0 °F 38.3 °F 84% 30.19 in 10.0 mi South 2.3 mph - N/A   Clear
5:58 AM 41.0 °F 38.5 °F 91% 30.21 in 10.0 mi Calm Calm - N/A   Clear
6:58 AM 41.2 °F 38.7 °F 91% 30.22 in 10.0 mi Calm Calm - N/A   Clear
7:58 AM 41.2 °F 38.8 °F 91% 30.26 in 10.0 mi Calm Calm - N/A   Clear
8:58 AM 48.9 °F 43.5 °F 82% 30.27 in 10.0 mi Calm Calm - N/A   Clear
9:55 AM 57.6 °F 41.9 °F 56% 30.27 in 10.0 mi Variable 1.2 mph - N/A   Clear
10:58 AM 64.6 °F 36.3 °F 35% 30.28 in 10.0 mi South 8.1 mph - N/A   Partly Cloudy
11:58 AM 66.7 °F 34.2 °F 30% 30.27 in 10.0 mi South 10.4 mph - N/A   Partly Cloudy
12:58 PM 68.5 °F 35.6 °F 30% 30.25 in 10.0 mi SSE 5.8 mph - N/A   Partly Cloudy
1:58 PM 70.7 °F 34.5 °F 26% 30.23 in 10.0 mi SW 6.9 mph 17.3 mph N/A   Clear
2:58 PM 71.6 °F 34.0 °F 25% 30.20 in 10.0 mi SW 9.2 mph - N/A   Clear
3:58 PM 74.3 °F 34.2 °F 23% 30.17 in 10.0 mi SSW 10.4 mph 17.3 mph N/A   Clear
4:58 PM 74.3 °F 34.3 °F 23% 30.16 in 10.0 mi Variable 2.3 mph - N/A   Clear
5:58 PM 74.3 °F 34.2 °F 23% 30.16 in 10.0 mi South 8.1 mph - N/A   Clear
6:58 PM 72.9 °F 34.7 °F 25% 30.16 in 10.0 mi SW 6.9 mph - N/A   Clear
7:58 PM 69.4 °F 37.0 °F 31% 30.16 in 10.0 mi South 3.5 mph - N/A   Clear
8:58 PM 66.6 °F 37.6 °F 34% 30.17 in 10.0 mi South 4.6 mph - N/A   Clear
9:58 PM 63.7 °F 37.0 °F 37% 30.18 in 10.0 mi South 3.5 mph - N/A   Clear
10:58 PM 62.6 °F 37.0 °F 39% 30.20 in 10.0 mi SSW 2.3 mph - N/A   Clear
11:58 PM 61.2 °F 37.2 °F 41% 30.20 in 10.0 mi SSW 5.8 mph - N/A   Clear